Location: Newark
(13.6797°N, 8.5297°E)
Time: 08:25:32
(UTC+00:00)

Explorer 11/Cluster Stage 4 - Visible Passes

Search period start: 28 January 2020 00:00
Search period end: 07 February 2020 00:00
Orbit: 467 x 1259 km, 28.8° (Epoch: 27 January)

Date Brightness Start Highest point End Pass type
(mag) Time Alt. Az. Time Alt. Az. Time Alt. Az.
28 Jan 7.0 18:34:55 10° WNW 18:41:43 67° SSW 18:45:44 19° SE visible
28 Jan 9.4 20:27:13 10° WSW 20:27:57 11° WSW 20:27:57 11° WSW visible
29 Jan 7.5 18:24:03 10° WNW 18:30:57 57° SSW 18:36:29 10° SE visible
29 Jan 9.3 20:17:27 10° SW 20:18:55 11° SW 20:18:55 11° SW visible
30 Jan 7.9 18:13:11 10° WNW 18:20:08 48° SSW 18:25:47 10° SE visible
31 Jan 8.3 18:02:23 10° W 18:09:18 41° SSW 18:15:01 10° SE visible
01 Feb 8.7 17:51:38 10° W 17:58:26 36° SW 18:04:11 10° SSE visible
02 Feb 9.1 17:40:56 10° W 17:47:33 31° SW 17:53:17 10° SSE visible
04 Feb 9.1 04:38:24 10° SSE 04:39:02 10° SE 04:39:41 10° SE visible
05 Feb 8.7 04:26:29 10° S 04:28:20 13° SE 04:30:20 10° ESE visible
06 Feb 8.4 04:15:14 10° S 04:17:39 16° SE 04:20:18 10° ESE visible
